This is the latest recevied weather packets stored in our database for station/object KD7CTY. If no packets are shown the sender has not sent any weather packets the latest 10 day(s).
| Time | Temp. | Humidity | Pressure | Rain* | Wind** | Luminosity | Snow |
|---|---|---|---|---|---|---|---|
| 1788552057 | 19.44° C | 65% | 1012.3 hPa | 0 mm | - | 747 W/m² | - |
| 1788551756 | 20° C | 64% | 1012.6 hPa | 0 mm | - | 757 W/m² | - |
| 1788551450 | 20° C | 64% | 1012.5 hPa | 0 mm | - | 780 W/m² | - |
| 1788551145 | 20° C | 65% | 1012.5 hPa | 0 mm | - | 775 W/m² | - |
| 1788550840 | 20° C | 64% | 1012.7 hPa | 0 mm | - | 775 W/m² | - |
| 1788550540 | 18.89° C | 67% | 1012.9 hPa | 0 mm | - | 779 W/m² | - |
| 1788550237 | 19.44° C | 67% | 1012.8 hPa | 0 mm | - | 788 W/m² | - |
| 1788549936 | 18.33° C | 67% | 1012.7 hPa | 0 mm | - | 834 W/m² | - |
| 1788549632 | 17.78° C | 69% | 1012.8 hPa | 0 mm | - | 923 W/m² | - |
| 1788549328 | 17.78° C | 70% | 1012.9 hPa | 0 mm | - | 228 W/m² | - |
| 1788549025 | 17.78° C | 69% | 1012.7 hPa | 0 mm | - | 248 W/m² | - |
| 1788548725 | 17.22° C | 68% | 1012.9 hPa | 0 mm | - | 265 W/m² | - |
| 1788548421 | 17.22° C | 67% | 1012.8 hPa | 0 mm | - | 297 W/m² | - |
| 1788548118 | 18.33° C | 66% | 1012.7 hPa | 0 mm | - | 306 W/m² | - |
| 1788547812 | 17.78° C | 70% | 1013.1 hPa | 0 mm | - | 406 W/m² | - |
| 1788547507 | 17.78° C | 70% | 1012.9 hPa | 0 mm | - | 334 W/m² | - |
| 1788547202 | 17.78° C | 68% | 1013 hPa | 0 mm | - | 404 W/m² | - |
| 1788546896 | 17.78° C | 70% | 1012.8 hPa | 0 mm | - | 835 W/m² | - |
| 1788546592 | 17.78° C | 72% | 1012.9 hPa | 0 mm | - | 722 W/m² | - |
| 1788546287 | 17.78° C | 72% | 1012.8 hPa | 0 mm | - | 695 W/m² | - |
| 1788545987 | 17.78° C | 72% | 1012.7 hPa | 0 mm | - | 677 W/m² | - |
| 1788545683 | 17.78° C | 72% | 1012.7 hPa | 0 mm | - | 690 W/m² | - |
| 1788545378 | 18.33° C | 75% | 1012.7 hPa | 0 mm | - | 720 W/m² | - |
| 1788545073 | 17.22° C | 77% | 1012.8 hPa | 0 mm | - | 775 W/m² | - |
| 1788544767 | 15.56° C | 81% | 1012.7 hPa | 0 mm | - | 520 W/m² | - |
* Rain latest hour (hover to see other rain measurements)
** Current wind speed in m/s (hover to see current wind gust speed)